[Date Prev][Date Next][Thread Prev][Thread Next] - [Date Index][Thread Index][Author Index]
2 Line ISS Keps 5-26
- Subject: [sarex] 2 Line ISS Keps 5-26
- From: "Dave Larsen PhD" <doc@xxxxxxxxxxx>
- Date: Wed, 25 May 2005 18:49:59 -0700
ISS
1 25544U 98067A 05146.01093560 .00013600 00000-0 10572-3 0 5501
2 25544 051.6463 014.5157 0005697 163.0286 334.4856 15.72103580372190
----
Via the sarex mailing list at AMSAT.ORG courtesy of AMSAT-NA.
To unsubscribe, send "unsubscribe sarex" to Majordomo@amsat.org
AMSAT Home